User: anonymous   Login
Location: Unspecified
(0.0000°N, 0.0000°E)
Time: 21:23:28
(UTC+02:00)
Language:

Meteor 1-31 Rocket - Orbit

View from above orbital plane
View from above orbital plane
View from above satellite
View from above satellite

Ground track
Ground track

The orbit data is extracted from the following two-line orbital elements,

1 12586U 81065B   17263.95088751 +.00000487 +00000-0 +33758-4 0  9993
2 12586 097.5064 243.5797 0017745 228.4322 131.5387 15.10054712966789
Epoch (UTC): 20 September 2017 22:49:16
Eccentricity: 0.0017745
inclination: 97.5064°
perigee height: 524 km
apogee height: 548 km
right ascension of ascending node: 243.5797°
argument of perigee: 228.4322°
revolutions per day: 15.10054712
mean anomaly at epoch: 131.5387°
orbit number at epoch: 96678

The dashed part of the orbit path shows where the satellite is in the earth's shadow,  

DLR